Regional Weather Roundup
Issued by NWS State College, PA

Home | Current Version | Previous Version | Text Only | Print | Product List | Glossary Off
Versions: 1 2 3 4 5 6 7 8 9 10 11 12 13 14 15 16 17 18 19 20 21 22 23 24 25 26 27 28 29 30 31 32 33 34 35 36 37 38 39 40 41 42 43 44 45 46 47 48 49 50

000
ASUS41 KCTP 241210
RWRCTP

REGIONAL WEATHER ROUNDUP
NATIONAL WEATHER SERVICE STATE COLLEGE PA
800 AM EDT MON JUL 24 2017

Note: "fair" indicates few or no clouds below 12,000 feet with no
significant weather and/or obstructions to visibility.

* = STATION THAT DOES NOT REPORT PRECIPITATION /E.G. RAIN...SNOW...ETC/
    THUNDER OR FOG.

PAZ002>004-007>009-013>016-020>023-029>032-241300-
WESTERN PENNSYLVANIA

CITY           SKY/WX    TMP DP  RH WIND       PRES   REMARKS
ERIE           CLOUDY    71  64  78 W7        29.82R
MEADVILLE      NOT AVBL
FRANKLIN*      PTSUNNY   68  63  83 W7        29.86R
NEW CASTLE     FAIR      67  66  97 CALM      29.86R
BEAVER COUNTY  CLOUDY    66  64  94 SW5       29.86S FOG
BUTLER*        CLOUDY    68  64  88 W7        29.87R
PITTSBURGH INT PTSUNNY   68  67  96 W5        29.86R
PITTSBURGH     CLOUDY    67  63  87 SW8       29.86S
INDIANA*       CLOUDY    68  68 100 SW5       29.89S FOG
LATROBE        CLOUDY    66  66 100 SW9       29.89R
WASHINGTON CO* CLOUDY    66  64  94 CALM      29.88R
$$

PAZ004>006-010>012-017>019-024>028-033>037-041-042-045-046-049>053-241300-
CENTRAL PENNSYLVANIA

CITY           SKY/WX    TMP DP  RH WIND       PRES   REMARKS
BRADFORD       PTSUNNY   68  67  96 W6        29.86R
DUBOIS         CLOUDY    66  64  93 W7        29.86R FOG
CLEARFIELD     CLOUDY    67  67 100 SW5       29.86R FOG
JOHNSTOWN      CLOUDY    65  64  97 W9        29.90R
ALTOONA        PTSUNNY   70  67  90 VRB7      29.86R
STATE COLLEGE  CLOUDY    66  64  94 CALM      29.84R
WILLIAMSPORT   CLOUDY    69  68  96 W7        29.79S
SELINSGROVE    PTSUNNY   70  68  93 N5        29.80S
FT INDIANTOWN  PTSUNNY   70  69  94 NW8       29.79R
CAPITAL CITY   MOSUNNY   73  66  78 W3        29.80R
HARRISBURG     MOSUNNY   72  69  90 NW8       29.78R
YORK           MOSUNNY   71  69  93 CALM      29.80R
$$

PAZ038>040-043-044-047-048-054-055-060>062-067>071-241300-
EASTERN PENNSYLVANIA

CITY           SKY/WX    TMP DP  RH WIND       PRES   REMARKS
SCRANTON       LGT RAIN  67  66  97 SE5       29.79F
MOUNT POCONO   RAIN      63  63 100 NE9       29.83R FOG
ALLENTOWN      RAIN      69  65  86 N14G23    29.75R FOG
QUAKERTOWN*    CLOUDY    68  68 100 CALM      29.76S
READING        LGT RAIN  70  70 100 CALM      29.75R
LANCASTER      PTSUNNY   74  70  87 N5        29.77R
COATESVILLE    CLOUDY    70  70 100 S5        29.80R FOG
POTTSTOWN      LGT RAIN  70  70 100 S6        29.77R FOG
BLUE BELL      CLOUDY    70  70 100 CALM      29.77R
DOYLESTOWN     CLOUDY    69  69 100 VRB3      29.75S
WILLOW GROVE   NOT AVBL
NORTH PHILA    CLOUDY    74  71  91 S3        29.77R
PHILADELPHIA   CLOUDY    73  70  90 S6        29.76R
$$




USA.gov is the U.S. government's official web portal to all federal, state and local government web resources and services.